,,PA_Meas_PMT16A,,PR_Meas_QMR101_102,,RH_Meas_QMH101,,SR_Meas_QMS101,,TA_Meas_QMH101,,GenWind,,GenWind,
time,status,PA,status,PR,status,RH,status,SR,status,TA,status,DirAvg,status,SpdAvg,
2012-06-19, 00:00:04,VALID,918.402,VALID,0,VALID,96.8479,VALID,0,VALID,20.6405,VALID,148,VALID,0,
2012-06-19, 00:01:04,VALID,918.375,VALID,0,VALID,96.8707,VALID,0,VALID,20.6015,VALID,148,VALID,0,
2012-06-19, 00:02:04,VALID,918.373,VALID,0,VALID,96.9012,VALID,0,VALID,20.6015,VALID,148,VALID,0,
2012-06-19, 00:03:04,VALID,918.401,VALID,0,VALID,96.9089,VALID,0,VALID,20.5609,VALID,129,VALID,0,
2012-06-19, 00:04:04,VALID,918.395,VALID,0,VALID,96.9089,VALID,0,VALID,20.5625,VALID,123,VALID,0,
2012-06-19, 00:05:04,VALID,918.419,VALID,0,VALID,96.9317,VALID,0,VALID,20.543,VALID,123,VALID,0,
2012-06-19, 00:06:04,VALID,918.427,VALID,0,VALID,96.9698,VALID,0,VALID,20.5235,VALID,123,VALID,0,
2012-06-19, 00:07:04,VALID,918.421,VALID,0,VALID,96.9851,VALID,0,VALID,20.5219,VALID,123,VALID,0,
2012-06-19, 00:08:04,VALID,918.425,VALID,0,VALID,97.0461,VALID,0,VALID,20.5414,VALID,123,VALID,0,
2012-06-19, 00:09:04,VALID,918.468,VALID,0,VALID,97.069,VALID,0,VALID,20.5609,VALID,123,VALID,0,
2012-06-19, 00:10:04,VALID,918.47,VALID,0,VALID,97.0537,VALID,0,VALID,20.5999,VALID,123,VALID,0,
2012-06-19, 00:11:04,VALID,918.496,VALID,0,VALID,97.0232,VALID,0,VALID,20.5609,VALID,123,VALID,0,
2012-06-19, 00:12:04,VALID,918.497,VALID,0,VALID,97.0461,VALID,0,VALID,20.582,VALID,123,VALID,0,
2012-06-19, 00:13:04,VALID,918.48,VALID,0,VALID,97.0308,VALID,0,VALID,20.6015,VALID,122,VALID,0,
2012-06-19, 00:14:04,VALID,918.495,VALID,0,VALID,97.0385,VALID,0,VALID,20.582,VALID,41,VALID,0,
2012-06-19, 00:15:04,VALID,918.528,VALID,0,VALID,97.0537,VALID,0,VALID,20.5804,VALID,41,VALID,0,
2012-06-19, 00:16:04,VALID,918.506,VALID,0,VALID,97.0461,VALID,0,VALID,20.582,VALID,40,VALID,0,
2012-06-19, 00:17:04,VALID,918.439,VALID,0,VALID,97.0918,VALID,0,VALID,20.6015,VALID,41,VALID,0,
2012-06-19, 00:18:04,VALID,918.406,VALID,0,VALID,97.069,VALID,0,VALID,20.5804,VALID,41,VALID,0,
2012-06-19, 00:19:04,VALID,918.385,VALID,0,VALID,97.0918,VALID,0,VALID,20.621,VALID,40,VALID,0,
2012-06-19, 00:20:04,VALID,918.384,VALID,0,VALID,97.0918,VALID,0,VALID,20.6015,VALID,41,VALID,0,
2012-06-19, 00:21:04,VALID,918.363,VALID,0,VALID,97.0613,VALID,0,VALID,20.621,VALID,40,VALID,0,
2012-06-19, 00:22:04,VALID,918.323,VALID,0,VALID,97.069,VALID,0,VALID,20.582,VALID,41,VALID,0,
2012-06-19, 00:23:04,VALID,918.351,VALID,0,VALID,97.0537,VALID,0,VALID,20.5804,VALID,40,VALID,0,
2012-06-19, 00:24:04,VALID,918.332,VALID,0,VALID,97.0842,VALID,0,VALID,20.5804,VALID,41,VALID,0,
2012-06-19, 00:25:04,VALID,918.305,VALID,0,VALID,97.0537,VALID,0,VALID,20.582,VALID,40,VALID,0,
2012-06-19, 00:26:04,VALID,918.284,VALID,0,VALID,97.0918,VALID,0,VALID,20.582,VALID,41,VALID,0,
2012-06-19, 00:27:04,VALID,918.294,VALID,0,VALID,97.1071,VALID,0,VALID,20.6015,VALID,41,VALID,0,
2012-06-19, 00:28:04,VALID,918.268,VALID,0,VALID,97.0537,VALID,0,VALID,20.5625,VALID,41,VALID,0,
2012-06-19, 00:29:04,VALID,918.271,VALID,0,VALID,97.0613,VALID,0,VALID,20.543,VALID,41,VALID,0,
2012-06-19, 00:30:04,VALID,918.237,VALID,0,VALID,97.0842,VALID,0,VALID,20.5414,VALID,25,VALID,0,
2012-06-19, 00:31:04,VALID,918.251,VALID,0,VALID,97.0994,VALID,0,VALID,20.5235,VALID,5,VALID,0,
2012-06-19, 00:32:04,VALID,918.222,VALID,0,VALID,97.0994,VALID,0,VALID,20.5235,VALID,5,VALID,0,
2012-06-19, 00:33:04,VALID,918.215,VALID,0,VALID,97.1452,VALID,0,VALID,20.5235,VALID,5,VALID,0,
2012-06-19, 00:34:04,VALID,918.212,VALID,0,VALID,97.1452,VALID,0,VALID,20.543,VALID,5,VALID,0,
2012-06-19, 00:35:04,VALID,918.169,VALID,0,VALID,97.1604,VALID,0,VALID,20.5625,VALID,5,VALID,0,
2012-06-19, 00:36:04,VALID,918.175,VALID,0,VALID,97.1681,VALID,0,VALID,20.5625,VALID,5,VALID,0,
2012-06-19, 00:37:04,VALID,918.142,VALID,0,VALID,97.1528,VALID,0,VALID,20.5625,VALID,5,VALID,0,
2012-06-19, 00:38:04,VALID,918.109,VALID,0,VALID,97.1604,VALID,0,VALID,20.5625,VALID,5,VALID,0,
2012-06-19, 00:39:04,VALID,918.099,VALID,0,VALID,97.1376,VALID,0,VALID,20.5219,VALID,5,VALID,0,
2012-06-19, 00:40:04,VALID,918.08,VALID,0,VALID,97.1833,VALID,0,VALID,20.5804,VALID,5,VALID,0,
2012-06-19, 00:41:04,VALID,918.064,VALID,0,VALID,97.1604,VALID,0,VALID,20.5414,VALID,5,VALID,0,
2012-06-19, 00:42:04,VALID,918.055,VALID,0,VALID,97.1299,VALID,0,VALID,20.5414,VALID,5,VALID,0,
2012-06-19, 00:43:04,VALID,918.035,VALID,0,VALID,97.0766,VALID,0,VALID,20.4829,VALID,5,VALID,0,
2012-06-19, 00:44:04,VALID,918.022,VALID,0,VALID,97.0461,VALID,0,VALID,20.465,VALID,5,VALID,0,
2012-06-19, 00:45:04,VALID,917.989,VALID,0,VALID,97.0994,VALID,0,VALID,20.4454,VALID,5,VALID,0,
2012-06-19, 00:46:04,VALID,917.959,VALID,0,VALID,97.1452,VALID,0,VALID,20.4454,VALID,5,VALID,0,
2012-06-19, 00:47:04,VALID,917.974,VALID,0,VALID,97.1604,VALID,0,VALID,20.4454,VALID,5,VALID,0,
2012-06-19, 00:48:04,VALID,917.981,VALID,0,VALID,97.1833,VALID,0,VALID,20.4244,VALID,5,VALID,0,
2012-06-19, 00:49:04,VALID,918.004,VALID,0,VALID,97.1376,VALID,0,VALID,20.4244,VALID,5,VALID,0,
2012-06-19, 00:50:04,VALID,917.973,VALID,0,VALID,97.1681,VALID,0,VALID,20.4454,VALID,5,VALID,0,
2012-06-19, 00:51:04,VALID,917.92,VALID,0,VALID,97.1833,VALID,0,VALID,20.465,VALID,5,VALID,0,
2012-06-19, 00:52:04,VALID,917.969,VALID,0,VALID,97.1833,VALID,0,VALID,20.4259,VALID,5,VALID,0,
2012-06-19, 00:53:04,VALID,917.957,VALID,0,VALID,97.0918,VALID,0,VALID,20.3464,VALID,5,VALID,0,
2012-06-19, 00:54:04,VALID,917.923,VALID,0,VALID,97.0918,VALID,0,VALID,20.3089,VALID,5,VALID,0,
2012-06-19, 00:55:04,VALID,917.937,VALID,0,VALID,97.1452,VALID,0,VALID,20.2684,VALID,5,VALID,0,
2012-06-19, 00:56:04,VALID,917.961,VALID,0,VALID,97.1528,VALID,0,VALID,20.2699,VALID,5,VALID,0,
2012-06-19, 00:57:04,VALID,917.981,VALID,0,VALID,97.1299,VALID,0,VALID,20.2098,VALID,136,VALID,0,
2012-06-19, 00:58:04,VALID,917.992,VALID,0,VALID,97.1528,VALID,0,VALID,20.1903,VALID,136,VALID,0,
2012-06-19, 00:59:04,VALID,918.005,VALID,0,VALID,97.1909,VALID,0,VALID,20.1919,VALID,136,VALID,0,
2012-06-19, 01:00:04,VALID,918.031,VALID,0,VALID,97.1986,VALID,0,VALID,20.1919,VALID,136,VALID,0,
2012-06-19, 01:01:04,VALID,918.019,VALID,0,VALID,97.2138,VALID,0,VALID,20.2114,VALID,136,VALID,0,
2012-06-19, 01:02:04,VALID,918.013,VALID,0,VALID,97.2214,VALID,0,VALID,20.2504,VALID,136,VALID,0,
2012-06-19, 01:03:04,VALID,918.02,VALID,0,VALID,97.229,VALID,0,VALID,20.2098,VALID,136,VALID,0,
2012-06-19, 01:04:04,VALID,917.978,VALID,0,VALID,97.2367,VALID,0,VALID,20.2098,VALID,136,VALID,0,
2012-06-19, 01:05:04,VALID,917.941,VALID,0,VALID,97.2672,VALID,0,VALID,20.2293,VALID,140,VALID,0,
2012-06-19, 01:06:04,VALID,917.934,VALID,0,VALID,97.2595,VALID,0,VALID,20.2489,VALID,124,VALID,0,
2012-06-19, 01:07:04,VALID,917.942,VALID,0,VALID,97.2443,VALID,0,VALID,20.2684,VALID,124,VALID,0,
2012-06-19, 01:08:04,VALID,917.954,VALID,0,VALID,97.2519,VALID,0.107441,VALID,20.2894,VALID,120,VALID,0,
2012-06-19, 01:09:04,VALID,917.961,VALID,0,VALID,97.2672,VALID,0,VALID,20.3284,VALID,117,VALID,0,
2012-06-19, 01:10:04,VALID,917.973,VALID,0,VALID,97.2748,VALID,0,VALID,20.3284,VALID,91,VALID,0,
2012-06-19, 01:11:04,VALID,917.985,VALID,0,VALID,97.2748,VALID,0,VALID,20.3284,VALID,111,VALID,0,
2012-06-19, 01:12:04,VALID,917.972,VALID,0,VALID,97.2595,VALID,0,VALID,20.3479,VALID,96,VALID,0,
2012-06-19, 01:13:04,VALID,917.957,VALID,0,VALID,97.2595,VALID,0,VALID,20.3269,VALID,103,VALID,0,
2012-06-19, 01:14:04,VALID,917.959,VALID,0,VALID,97.2748,VALID,0,VALID,20.3479,VALID,102,VALID,0,
2012-06-19, 01:15:04,VALID,917.933,VALID,0,VALID,97.2748,VALID,0,VALID,20.3284,VALID,102,VALID,0,
2012-06-19, 01:16:04,VALID,917.966,VALID,0,VALID,97.2748,VALID,0,VALID,20.3074,VALID,95,VALID,0,
2012-06-19, 01:17:04,VALID,917.958,VALID,0,VALID,97.2595,VALID,0,VALID,20.3284,VALID,95,VALID,0,
2012-06-19, 01:18:04,VALID,917.926,VALID,0,VALID,97.2672,VALID,0,VALID,20.3284,VALID,95,VALID,0,
2012-06-19, 01:19:04,VALID,917.94,VALID,0,VALID,97.2748,VALID,0,VALID,20.3674,VALID,95,VALID,0,
2012-06-19, 01:20:04,VALID,917.95,VALID,0,VALID,97.2672,VALID,0,VALID,20.3464,VALID,95,VALID,0,
2012-06-19, 01:21:04,VALID,917.967,VALID,0,VALID,97.2824,VALID,0,VALID,20.3869,VALID,95,VALID,0,
2012-06-19, 01:22:04,VALID,917.938,VALID,0,VALID,97.29,VALID,0,VALID,20.4064,VALID,95,VALID,0,
2012-06-19, 01:23:04,VALID,917.935,VALID,0,VALID,97.29,VALID,0,VALID,20.4064,VALID,95,VALID,0,
2012-06-19, 01:24:04,VALID,917.919,VALID,0,VALID,97.29,VALID,0,VALID,20.3479,VALID,141,VALID,0,
2012-06-19, 01:25:04,VALID,917.936,VALID,0,VALID,97.2824,VALID,0,VALID,20.3479,VALID,132,VALID,0,
2012-06-19, 01:26:04,VALID,917.943,VALID,0,VALID,97.2748,VALID,0,VALID,20.2879,VALID,125,VALID,0,
2012-06-19, 01:27:04,VALID,917.943,VALID,0,VALID,97.2824,VALID,0,VALID,20.2699,VALID,125,VALID,0,
2012-06-19, 01:28:04,VALID,917.959,VALID,0,VALID,97.2824,VALID,0,VALID,20.2504,VALID,125,VALID,0,
2012-06-19, 01:29:04,VALID,917.999,VALID,0,VALID,97.2824,VALID,0,VALID,20.2504,VALID,125,VALID,0,
2012-06-19, 01:30:04,VALID,917.983,VALID,0,VALID,97.29,VALID,0,VALID,20.2114,VALID,125,VALID,0,
2012-06-19, 01:31:04,VALID,917.979,VALID,0,VALID,97.2595,VALID,0,VALID,20.1708,VALID,130,VALID,0,
2012-06-19, 01:32:04,VALID,917.933,VALID,0,VALID,97.29,VALID,0,VALID,20.1724,VALID,128,VALID,0,
2012-06-19, 01:33:04,VALID,917.929,VALID,0,VALID,97.3053,VALID,0,VALID,20.1529,VALID,128,VALID,0,
2012-06-19, 01:34:04,VALID,917.939,VALID,0,VALID,97.2748,VALID,0,VALID,20.1529,VALID,128,VALID,0,
2012-06-19, 01:35:04,VALID,917.872,VALID,0,VALID,97.2672,VALID,0,VALID,20.1318,VALID,128,VALID,0,
2012-06-19, 01:36:04,VALID,917.874,VALID,0,VALID,97.29,VALID,0,VALID,20.1139,VALID,128,VALID,0,
2012-06-19, 01:37:04,VALID,917.857,VALID,0,VALID,97.3129,VALID,0,VALID,20.1334,VALID,128,VALID,0,
2012-06-19, 01:38:04,VALID,917.81,VALID,0,VALID,97.3205,VALID,0,VALID,20.0928,VALID,128,VALID,0,
2012-06-19, 01:39:04,VALID,917.833,VALID,0,VALID,97.2977,VALID,0,VALID,20.1139,VALID,128,VALID,0,
2012-06-19, 01:40:04,VALID,917.84,VALID,0,VALID,97.3358,VALID,0,VALID,20.0928,VALID,110,VALID,0,
2012-06-19, 01:41:04,VALID,917.848,VALID,0,VALID,97.3129,VALID,0,VALID,20.0944,VALID,110,VALID,0,
2012-06-19, 01:42:04,VALID,917.859,VALID,0,VALID,97.3434,VALID,0,VALID,20.1139,VALID,110,VALID,0,
2012-06-19, 01:43:04,VALID,917.847,VALID,0,VALID,97.3205,VALID,0,VALID,20.0928,VALID,125,VALID,0,
2012-06-19, 01:44:04,VALID,917.805,VALID,0,VALID,97.3281,VALID,0,VALID,20.1334,VALID,136,VALID,0,
2012-06-19, 01:45:04,VALID,917.805,VALID,0,VALID,97.3281,VALID,0,VALID,20.1334,VALID,136,VALID,0,
2012-06-19, 01:46:04,VALID,917.796,VALID,0,VALID,97.3281,VALID,0,VALID,20.0928,VALID,136,VALID,0,
2012-06-19, 01:47:04,VALID,917.767,VALID,0,VALID,97.3205,VALID,0,VALID,20.1334,VALID,136,VALID,0,
2012-06-19, 01:48:04,VALID,917.734,VALID,0,VALID,97.3434,VALID,0,VALID,20.1334,VALID,136,VALID,0,
2012-06-19, 01:49:04,VALID,917.709,VALID,0,VALID,97.3281,VALID,0,VALID,20.1334,VALID,136,VALID,0,
2012-06-19, 01:50:04,VALID,917.698,VALID,0,VALID,97.3663,VALID,0,VALID,20.1123,VALID,136,VALID,0,
2012-06-19, 01:51:04,VALID,917.692,VALID,0,VALID,97.351,VALID,0,VALID,20.0733,VALID,136,VALID,0,
2012-06-19, 01:52:04,VALID,917.646,VALID,0,VALID,97.3739,VALID,0,VALID,20.0749,VALID,136,VALID,0,
2012-06-19, 01:53:04,VALID,917.666,VALID,0,VALID,97.351,VALID,0,VALID,20.0553,VALID,136,VALID,0,
2012-06-19, 01:54:04,VALID,917.62,VALID,0,VALID,97.3358,VALID,0,VALID,20.0358,VALID,136,VALID,0,
2012-06-19, 01:55:04,VALID,917.63,VALID,0,VALID,97.351,VALID,0,VALID,20.0358,VALID,136,VALID,0,
2012-06-19, 01:56:04,VALID,917.655,VALID,0,VALID,97.3586,VALID,0,VALID,20.0163,VALID,136,VALID,0,
2012-06-19, 01:57:04,VALID,917.656,VALID,0,VALID,97.3434,VALID,0,VALID,19.9773,VALID,136,VALID,0,
2012-06-19, 01:58:04,VALID,917.678,VALID,0,VALID,97.3434,VALID,0,VALID,19.9578,VALID,136,VALID,0,
2012-06-19, 01:59:04,VALID,917.679,VALID,0,VALID,97.3586,VALID,0,VALID,19.9578,VALID,129,VALID,0,
2012-06-19, 02:00:04,VALID,917.666,VALID,0,VALID,97.3663,VALID,0,VALID,19.9383,VALID,127,VALID,0,
2012-06-19, 02:01:04,VALID,917.667,VALID,0,VALID,97.3663,VALID,0,VALID,19.9188,VALID,127,VALID,0,
2012-06-19, 02:02:04,VALID,917.685,VALID,0,VALID,97.351,VALID,0,VALID,19.8993,VALID,127,VALID,0,
2012-06-19, 02:03:04,VALID,917.658,VALID,0,VALID,97.3586,VALID,0,VALID,19.8798,VALID,127,VALID,0,
2012-06-19, 02:04:04,VALID,917.662,VALID,0,VALID,97.3663,VALID,0,VALID,19.8618,VALID,127,VALID,0,
2012-06-19, 02:05:04,VALID,917.661,VALID,0,VALID,97.3586,VALID,0,VALID,19.8213,VALID,127,VALID,0,
2012-06-19, 02:06:04,VALID,917.677,VALID,0,VALID,97.3739,VALID,0,VALID,19.8213,VALID,127,VALID,0,
2012-06-19, 02:07:04,VALID,917.652,VALID,0,VALID,97.3739,VALID,0,VALID,19.8213,VALID,127,VALID,0,
2012-06-19, 02:08:04,VALID,917.658,VALID,0,VALID,97.3815,VALID,0,VALID,19.8408,VALID,147,VALID,0,
2012-06-19, 02:09:04,VALID,917.66,VALID,0,VALID,97.3891,VALID,0,VALID,19.8213,VALID,147,VALID,0,
2012-06-19, 02:10:04,VALID,917.616,VALID,0,VALID,97.3815,VALID,0,VALID,19.8408,VALID,147,VALID,0,
2012-06-19, 02:11:04,VALID,917.59,VALID,0,VALID,97.3815,VALID,0,VALID,19.8603,VALID,147,VALID,0,
2012-06-19, 02:12:04,VALID,917.568,VALID,0,VALID,97.3968,VALID,0,VALID,19.8213,VALID,147,VALID,0,
2012-06-19, 02:13:04,VALID,917.505,VALID,0,VALID,97.3968,VALID,0,VALID,19.8603,VALID,147,VALID,0,
2012-06-19, 02:14:04,VALID,917.533,VALID,0,VALID,97.4044,VALID,0,VALID,19.8603,VALID,147,VALID,0,
2012-06-19, 02:15:04,VALID,917.525,VALID,0,VALID,97.4196,VALID,0,VALID,19.8198,VALID,141,VALID,0,
2012-06-19, 02:16:04,VALID,917.532,VALID,0,VALID,97.4044,VALID,0,VALID,19.8018,VALID,139,VALID,0,
2012-06-19, 02:17:04,VALID,917.52,VALID,0,VALID,97.4044,VALID,0,VALID,19.8213,VALID,150,VALID,0,
2012-06-19, 02:18:04,VALID,917.522,VALID,0,VALID,97.412,VALID,0,VALID,19.8213,VALID,168,VALID,0,
2012-06-19, 02:19:04,VALID,917.507,VALID,0,VALID,97.4273,VALID,0,VALID,19.8213,VALID,126,VALID,0,
2012-06-19, 02:20:04,VALID,917.519,VALID,0,VALID,97.3891,VALID,0,VALID,19.8213,VALID,126,VALID,0,
2012-06-19, 02:21:04,VALID,917.49,VALID,0,VALID,97.4196,VALID,0,VALID,19.8408,VALID,133,VALID,0,
2012-06-19, 02:22:04,VALID,917.492,VALID,0,VALID,97.4196,VALID,0,VALID,19.8213,VALID,133,VALID,0,
2012-06-19, 02:23:04,VALID,917.469,VALID,0,VALID,97.4196,VALID,0,VALID,19.7838,VALID,112,VALID,0,
2012-06-19, 02:24:04,VALID,917.432,VALID,0,VALID,97.4044,VALID,0,VALID,19.7418,VALID,97,VALID,0,
2012-06-19, 02:25:04,VALID,917.409,VALID,0,VALID,97.412,VALID,0.107441,VALID,19.6833,VALID,93,VALID,0,
2012-06-19, 02:26:04,VALID,917.383,VALID,0,VALID,97.412,VALID,0.107441,VALID,19.7238,VALID,131,VALID,0,
2012-06-19, 02:27:04,VALID,917.346,VALID,0,VALID,97.4349,VALID,0,VALID,19.6833,VALID,126,VALID,0,
2012-06-19, 02:28:04,VALID,917.344,VALID,0,VALID,97.412,VALID,0,VALID,19.6653,VALID,123,VALID,0,
2012-06-19, 02:29:04,VALID,917.352,VALID,0,VALID,97.4273,VALID,0.107441,VALID,19.6443,VALID,117,VALID,0,
2012-06-19, 02:30:04,VALID,917.379,VALID,0,VALID,97.4349,VALID,0,VALID,19.6443,VALID,122,VALID,0,
2012-06-19, 02:31:04,VALID,917.319,VALID,0,VALID,97.4273,VALID,0,VALID,19.6653,VALID,151,VALID,0,
2012-06-19, 02:32:04,VALID,917.337,VALID,0,VALID,97.4349,VALID,0.107441,VALID,19.6638,VALID,130,VALID,0,
2012-06-19, 02:33:04,VALID,917.323,VALID,0,VALID,97.4349,VALID,0.107441,VALID,19.6848,VALID,138,VALID,0,
2012-06-19, 02:34:04,VALID,917.357,VALID,0,VALID,97.4425,VALID,0,VALID,19.6638,VALID,132,VALID,0,
2012-06-19, 02:35:04,VALID,917.317,VALID,0,VALID,97.4501,VALID,0.107441,VALID,19.6638,VALID,121,VALID,0,
2012-06-19, 02:36:04,VALID,917.351,VALID,0,VALID,97.4425,VALID,0,VALID,19.6833,VALID,137,VALID,0,
2012-06-19, 02:37:04,VALID,917.351,VALID,0,VALID,97.4577,VALID,0.107441,VALID,19.6638,VALID,122,VALID,0,
2012-06-19, 02:38:04,VALID,917.371,VALID,0,VALID,97.4501,VALID,0.107441,VALID,19.6638,VALID,131,VALID,0,
2012-06-19, 02:39:04,VALID,917.325,VALID,0,VALID,97.473,VALID,0,VALID,19.6653,VALID,152,VALID,0,
2012-06-19, 02:40:04,VALID,917.329,VALID,0,VALID,97.4577,VALID,0,VALID,19.6653,VALID,134,VALID,0,
2012-06-19, 02:41:04,VALID,917.3,VALID,0,VALID,97.4654,VALID,0,VALID,19.6848,VALID,150,VALID,0,
2012-06-19, 02:42:04,VALID,917.3,VALID,0,VALID,97.473,VALID,0,VALID,19.6848,VALID,173,VALID,0,
2012-06-19, 02:43:04,VALID,917.305,VALID,0,VALID,97.4501,VALID,0,VALID,19.7043,VALID,162,VALID,0,
2012-06-19, 02:44:04,VALID,917.241,VALID,0,VALID,97.4654,VALID,0,VALID,19.7043,VALID,165,VALID,0,
2012-06-19, 02:45:04,VALID,917.25,VALID,0,VALID,97.4654,VALID,0,VALID,19.7043,VALID,198,VALID,0,
2012-06-19, 02:46:04,VALID,917.245,VALID,0,VALID,97.473,VALID,0,VALID,19.7043,VALID,170,VALID,0,
2012-06-19, 02:47:04,VALID,917.216,VALID,0,VALID,97.4654,VALID,0,VALID,19.7043,VALID,169,VALID,0,
2012-06-19, 02:48:04,VALID,917.203,VALID,0,VALID,97.473,VALID,0,VALID,19.7043,VALID,169,VALID,0,
2012-06-19, 02:49:04,VALID,917.212,VALID,0,VALID,97.4654,VALID,0,VALID,19.7043,VALID,170,VALID,0,
2012-06-19, 02:50:04,VALID,917.197,VALID,0,VALID,97.4806,VALID,0,VALID,19.7238,VALID,180,VALID,0,
2012-06-19, 02:51:04,VALID,917.214,VALID,0,VALID,97.4577,VALID,0,VALID,19.7238,VALID,181,VALID,0,
2012-06-19, 02:52:04,VALID,917.185,VALID,0,VALID,97.4577,VALID,0,VALID,19.7238,VALID,180,VALID,0,
2012-06-19, 02:53:04,VALID,917.191,VALID,0,VALID,97.4882,VALID,0,VALID,19.7238,VALID,180,VALID,0,
2012-06-19, 02:54:04,VALID,917.186,VALID,0,VALID,97.473,VALID,0,VALID,19.7223,VALID,180,VALID,0,
2012-06-19, 02:55:04,VALID,917.156,VALID,0,VALID,97.4654,VALID,0,VALID,19.6833,VALID,180,VALID,0,
2012-06-19, 02:56:04,VALID,917.152,VALID,0,VALID,97.4882,VALID,0,VALID,19.6833,VALID,180,VALID,0,
2012-06-19, 02:57:04,VALID,917.138,VALID,0,VALID,97.4654,VALID,0,VALID,19.6638,VALID,180,VALID,0,
2012-06-19, 02:58:04,VALID,917.136,VALID,0,VALID,97.4806,VALID,0,VALID,19.6638,VALID,170,VALID,0,
2012-06-19, 02:59:04,VALID,917.128,VALID,0,VALID,97.4806,VALID,0,VALID,19.6848,VALID,170,VALID,0,
2012-06-19, 03:00:04,VALID,917.113,VALID,0,VALID,97.4959,VALID,0,VALID,19.6638,VALID,170,VALID,0,
2012-06-19, 03:01:04,VALID,917.11,VALID,0,VALID,97.473,VALID,0,VALID,19.6638,VALID,170,VALID,0,
2012-06-19, 03:02:04,VALID,917.11,VALID,0,VALID,97.4959,VALID,0.107441,VALID,19.6653,VALID,187,VALID,0,
2012-06-19, 03:03:04,VALID,917.068,VALID,0,VALID,97.4959,VALID,0.107441,VALID,19.6443,VALID,147,VALID,0,
2012-06-19, 03:04:04,VALID,917.069,VALID,0,VALID,97.5035,VALID,0,VALID,19.6053,VALID,164,VALID,0,
2012-06-19, 03:05:04,VALID,917.078,VALID,0,VALID,97.5111,VALID,0,VALID,19.6053,VALID,188,VALID,0,
2012-06-19, 03:06:04,VALID,917.113,VALID,0,VALID,97.4806,VALID,0,VALID,19.6053,VALID,188,VALID,0,
2012-06-19, 03:07:04,VALID,917.086,VALID,0,VALID,97.5035,VALID,0,VALID,19.6053,VALID,188,VALID,0,
2012-06-19, 03:08:04,VALID,917.115,VALID,0,VALID,97.4806,VALID,0.107441,VALID,19.5858,VALID,188,VALID,0,
2012-06-19, 03:09:04,VALID,917.127,VALID,0,VALID,97.4959,VALID,0,VALID,19.5873,VALID,188,VALID,0,
2012-06-19, 03:10:04,VALID,917.101,VALID,0,VALID,97.5035,VALID,0,VALID,19.5678,VALID,188,VALID,0,
2012-06-19, 03:11:04,VALID,917.092,VALID,0,VALID,97.5035,VALID,0,VALID,19.5678,VALID,109,VALID,0,
2012-06-19, 03:12:04,VALID,917.108,VALID,0,VALID,97.5111,VALID,0,VALID,19.5678,VALID,110,VALID,0,
2012-06-19, 03:13:04,VALID,917.087,VALID,0,VALID,97.5111,VALID,0,VALID,19.5873,VALID,110,VALID,0,
2012-06-19, 03:14:04,VALID,917.057,VALID,0,VALID,97.5035,VALID,0,VALID,19.5678,VALID,125,VALID,0,
2012-06-19, 03:15:04,VALID,917.024,VALID,0,VALID,97.5111,VALID,0,VALID,19.5678,VALID,158,VALID,0,
2012-06-19, 03:16:04,VALID,917.033,VALID,0,VALID,97.5111,VALID,0,VALID,19.5483,VALID,158,VALID,0,
2012-06-19, 03:17:04,VALID,917.015,VALID,0,VALID,97.4959,VALID,0,VALID,19.5888,VALID,158,VALID,0,
2012-06-19, 03:18:04,VALID,917.02,VALID,0,VALID,97.4959,VALID,0,VALID,19.5483,VALID,158,VALID,0,
2012-06-19, 03:19:04,VALID,916.989,VALID,0,VALID,97.5264,VALID,0,VALID,19.5498,VALID,158,VALID,0,
2012-06-19, 03:20:04,VALID,916.986,VALID,0,VALID,97.5111,VALID,0,VALID,19.5108,VALID,158,VALID,0,
2012-06-19, 03:21:04,VALID,916.99,VALID,0,VALID,97.5187,VALID,0,VALID,19.5108,VALID,158,VALID,0,
2012-06-19, 03:22:04,VALID,916.979,VALID,0,VALID,97.534,VALID,0,VALID,19.4898,VALID,155,VALID,0,
2012-06-19, 03:23:04,VALID,916.956,VALID,0,VALID,97.5264,VALID,0,VALID,19.5108,VALID,160,VALID,0,
2012-06-19, 03:24:04,VALID,916.933,VALID,0,VALID,97.5111,VALID,0,VALID,19.5108,VALID,160,VALID,0,
2012-06-19, 03:25:04,VALID,916.93,VALID,0,VALID,97.5264,VALID,0,VALID,19.4703,VALID,160,VALID,0,
2012-06-19, 03:26:04,VALID,916.917,VALID,0,VALID,97.5416,VALID,0,VALID,19.5108,VALID,161,VALID,0,
2012-06-19, 03:27:04,VALID,916.9,VALID,0,VALID,97.5187,VALID,0,VALID,19.4703,VALID,151,VALID,0,
2012-06-19, 03:28:04,VALID,916.896,VALID,0,VALID,97.5416,VALID,0,VALID,19.4718,VALID,158,VALID,0,
2012-06-19, 03:29:04,VALID,916.872,VALID,0,VALID,97.5187,VALID,0,VALID,19.4523,VALID,154,VALID,0,
2012-06-19, 03:30:04,VALID,916.871,VALID,0,VALID,97.5416,VALID,0,VALID,19.4523,VALID,195,VALID,0,
2012-06-19, 03:31:04,VALID,916.828,VALID,0,VALID,97.534,VALID,0,VALID,19.4327,VALID,186,VALID,0,
2012-06-19, 03:32:04,VALID,916.811,VALID,0,VALID,97.5416,VALID,0,VALID,19.4118,VALID,165,VALID,0,
2012-06-19, 03:33:04,VALID,916.817,VALID,0,VALID,97.5569,VALID,0,VALID,19.4118,VALID,166,VALID,0,
2012-06-19, 03:34:04,VALID,916.816,VALID,0,VALID,97.5569,VALID,0,VALID,19.4523,VALID,162,VALID,0,
2012-06-19, 03:35:04,VALID,916.838,VALID,0,VALID,97.534,VALID,0,VALID,19.4118,VALID,169,VALID,0,
2012-06-19, 03:36:04,VALID,916.828,VALID,0,VALID,97.5492,VALID,0,VALID,19.4118,VALID,173,VALID,0,
2012-06-19, 03:37:04,VALID,916.82,VALID,0,VALID,97.534,VALID,0,VALID,19.4327,VALID,170,VALID,0,
2012-06-19, 03:38:04,VALID,916.843,VALID,0,VALID,97.5492,VALID,0,VALID,19.4132,VALID,161,VALID,0,
2012-06-19, 03:39:04,VALID,916.84,VALID,0,VALID,97.5416,VALID,0,VALID,19.4327,VALID,172,VALID,0,
2012-06-19, 03:40:04,VALID,916.84,VALID,0,VALID,97.5416,VALID,0,VALID,19.3923,VALID,161,VALID,0,
2012-06-19, 03:41:04,VALID,916.866,VALID,0,VALID,97.5492,VALID,0,VALID,19.4327,VALID,168,VALID,0,
2012-06-19, 03:42:04,VALID,916.844,VALID,0,VALID,97.5721,VALID,0,VALID,19.4118,VALID,168,VALID,0,
2012-06-19, 03:43:04,VALID,916.869,VALID,0,VALID,97.5492,VALID,0,VALID,19.4327,VALID,179,VALID,0,
2012-06-19, 03:44:04,VALID,916.879,VALID,0,VALID,97.5569,VALID,0,VALID,19.4327,VALID,172,VALID,0,
2012-06-19, 03:45:04,VALID,916.905,VALID,0,VALID,97.5569,VALID,0,VALID,19.4132,VALID,169,VALID,0,
2012-06-19, 03:46:04,VALID,916.908,VALID,0,VALID,97.5721,VALID,0,VALID,19.4132,VALID,188,VALID,0,
2012-06-19, 03:47:04,VALID,916.919,VALID,0,VALID,97.5645,VALID,0,VALID,19.4132,VALID,185,VALID,0,
2012-06-19, 03:48:05,VALID,916.92,VALID,0,VALID,97.5645,VALID,0,VALID,19.4118,VALID,178,VALID,0,
2012-06-19, 03:49:05,VALID,916.881,VALID,0,VALID,97.5797,VALID,0,VALID,19.3923,VALID,173,VALID,0,
2012-06-19, 03:50:05,VALID,916.938,VALID,0,VALID,97.5873,VALID,0,VALID,19.4132,VALID,158,VALID,0,
2012-06-19, 03:51:05,VALID,916.923,VALID,0,VALID,97.5873,VALID,0,VALID,19.3937,VALID,158,VALID,0,
2012-06-19, 03:52:05,VALID,916.945,VALID,0,VALID,97.5645,VALID,0,VALID,19.3937,VALID,158,VALID,0,
2012-06-19, 03:53:05,VALID,916.935,VALID,0,VALID,97.5569,VALID,0,VALID,19.3533,VALID,173,VALID,0,
2012-06-19, 03:54:05,VALID,916.966,VALID,0,VALID,97.5797,VALID,0,VALID,19.3533,VALID,164,VALID,0,
2012-06-19, 03:55:05,VALID,916.982,VALID,0,VALID,97.5569,VALID,0,VALID,19.3338,VALID,152,VALID,0,
2012-06-19, 03:56:05,VALID,916.949,VALID,0,VALID,97.5797,VALID,0,VALID,19.3742,VALID,151,VALID,0,
2012-06-19, 03:57:05,VALID,916.958,VALID,0,VALID,97.5721,VALID,0,VALID,19.3533,VALID,164,VALID,0,
2012-06-19, 03:58:05,VALID,916.951,VALID,0,VALID,97.595,VALID,0,VALID,19.3352,VALID,155,VALID,0,
2012-06-19, 03:59:05,VALID,916.929,VALID,0,VALID,97.6026,VALID,0,VALID,19.3352,VALID,142,VALID,0,
2012-06-19, 04:00:05,VALID,916.944,VALID,0,VALID,97.5873,VALID,0,VALID,19.3352,VALID,154,VALID,0,